068  
NZUS93 KARX 271259  
HRRWXR  
 
CURRENT HOURLY OBSERVATIONS ACROSS  
MUCH OF THE UPPER MISSISSIPPI VALLEY  
NATIONAL WEATHER SERVICE LA CROSSE WI  
700 AM CST FRI FEB 27 2015  
 
   
..SOUTHEAST MINNESOTA
 
 
 
CITY SKY/WX TMP DP RH WIND PRES REMARKS  
ROCHESTER PTCLDY -14 -19 79 W10 30.49R WCI -34  
ROCHESTER/MAYO N/A -8 -14 75 W3 30.51R VSB 1  
WINONA PTCLDY -9 -15 77 CALM 30.57S  
AUSTIN LGT SNOW -15 -20 76 CALM 30.51S  
ALBERT LEA N/A -13 -17 84 W3 30.51S  
DODGE CENTER PTCLDY -17 -22 76 W9 30.48R WCI -36  
PRESTON MOCLDY -12 -16 79 W6 30.50S WCI -26  
OWATONNA MOCLDY -15 -20 76 CALM 30.52R  
FARIBAULT PTCLDY -17 -20 83 CALM 30.53R  

 
   
..ELSEWHERE IN MINNESOTA
 
 
 
CITY SKY/WX TMP DP RH WIND PRES REMARKS  
MINNEAPOLIS CLEAR -5 -11 75 SW6 30.54R WCI -18  
INTNL FALLS MOCLDY -20 -26 74 SW3 30.36S  
DULUTH CLEAR -10 -16 74 NW7 30.37S WCI -25  
RED WING CLEAR -15 -20 76 CALM 30.54S  
REDWOOD FALLS CLEAR -9 -14 78 SW6 30.55R WCI -22  
MANKATO PTCLDY -9 -18 64 CALM 30.53S  
FAIRMONT FAIR -11 -17 77 W6 30.51S WCI -25  

 
   
..SOUTHWEST WISCONSIN
 
 
 
CITY SKY/WX TMP DP RH WIND PRES REMARKS  
LA CROSSE CLEAR -9 -15 75 S5 30.56R WCI -20  
PRAIRIE DU CHI CLEAR -15 -22 72 CALM 30.58R  
BOSCOBEL CLEAR -15 -21 74 CALM 30.58R  
LONE ROCK NOT AVBL  
PLATTEVILLE PTCLDY -12 -17 80 W5 30.52R WCI -24  
FORT MC COY CLEAR -20 -26 73 CALM 30.53R  
VIROQUA FAIR -9 -13 83 W5 30.47R WCI -21  
WIS DELLS NOT AVBL  

 
   
..ELSEWHERE IN WISCONSIN
 
 
 
CITY SKY/WX TMP DP RH WIND PRES REMARKS  
MILWAUKEE CLEAR 1 -9 62 W9 30.51R WCI -14  
MADISON FAIR -4 -11 72 CALM 30.51R  
GREEN BAY CLEAR -2 -9 72 SW3 30.49R  
EAU CLAIRE NOT AVBL  
BLACK RVR FLS FAIR -16 -21 76 CALM 30.52S  
MEDFORD PTCLDY -12 -16 81 CALM 30.40R  
WAUSAU CLEAR -7 -14 71 NW6 30.42R WCI -20  
WIS RAPIDS CLEAR -10 -17 71 CALM 30.50R  
MARSHFIELD CLEAR -8 -14 74 W7 30.44R WCI -23  
RICE LAKE PTCLDY -14 -19 79 CALM 30.48S  

 
   
..NORTHEAST IOWA
 
 
 
CITY SKY/WX TMP DP RH WIND PRES REMARKS  
DECORAH PTCLDY -11 -18 70 CALM 30.51R  
MASON CITY MOCLDY -16 -20 82 W8 30.54R WCI -34  
CHARLES CITY MOCLDY -18 -26 69 NW7 30.54R WCI -35  
OELWEIN MOCLDY -20 -27 69 NW3 30.54R  

 
   
..ELSEWHERE IN IOWA
 
 
 
CITY SKY/WX TMP DP RH WIND PRES REMARKS  
DES MOINES CLEAR -7 -13 75 NW5 30.59S WCI -18  
IOWA CITY MOCLDY -13 -16 86 VRB3 30.62R  
FORT DODGE PTCLDY -11 -17 77 CALM 30.57S  

 
   
..NORTHERN ILLINOIS
 
 
 
CITY SKY/WX TMP DP RH WIND PRES REMARKS  
CHICAGO-OHARE PTCLDY 0 -10 63 NW9 30.52R WCI -15  
CHICAGO-MIDWAY PTCLDY 3 -4 72 NW5 30.54R WCI -6  
MOLINE PTCLDY -12 -16 82 W7 30.59R WCI -27  
ROCKFORD PTCLDY -14 -20 74 CALM 30.56R  
PEORIA PTCLDY -7 -12 79 NW3 30.59R  

 
 
NOTE: "FAIR" INDICATES FEW OR NO CLOUDS BELOW 12,000 FEET WITH NO  
SIGNIFICANT WEATHER AND/OR OBSTRUCTIONS TO VISIBILITY. WIND  
SPEEDS ARE IN MILES-PER-HOUR.  
 
CLICK HERE TO GO TO PREVIOUS BULLETINS.

The Nexlab WI Page
The Nexlab IA Page
The Nexlab MN Page Main Text Page